Location: Tel Aviv
(32.0670°N, 34.7670°E)
Time: 13:31:50
(UTC+03:00)

Explorer 11/Cluster Stage 4 - Pass Details

Date: 19 September 2024
Orbit: 464 x 1208 km, 28.8° (Epoch: 05 October)

Event Time Altitude Azimuth Distance (km) Brightness Sun altitude
Rises 07:11:11 0° 262° (W) 3,321 9.1 8.4°
Reaches altitude 10° 07:13:31 10° 259° (W) 2,498 8.6 8.9°
Maximum altitude 07:19:35 68° 178° (S) 1,068 7.5 10.2°
Drops below altitude 10° 07:26:57 10° 97° (E) 2,995 13.7 11.7°
Sets 07:29:58 0° 95° (E) 4,024 12.4 12.4°
